This is the latest recevied weather packets stored in our database for station/object SP1BMW-13. If no packets are shown the sender has not sent any weather packets the latest 10 day(s).
| Time | Temp. | Humidity | Pressure | Rain* | Wind** | Luminosity | Snow |
|---|---|---|---|---|---|---|---|
| 1787871617 | 18.33° C | 58% | 1016.3 hPa | 0 mm | 0.45 m/s, 107° | 0 W/m² | - |
| 1787871557 | 18.33° C | 58% | 1016 hPa | 0 mm | 0.45 m/s, 53° | 0 W/m² | - |
| 1787871497 | 18.33° C | 59% | 1016.1 hPa | 0 mm | 0 m/s | 0 W/m² | - |
| 1787871437 | 18.33° C | 58% | 1016 hPa | 0 mm | 0.89 m/s, 65° | 0 W/m² | - |
| 1787871377 | 18.33° C | 58% | 1016.1 hPa | 0 mm | 0.89 m/s, 92° | 0 W/m² | - |
| 1787871317 | 18.33° C | 58% | 1016.1 hPa | 0 mm | 0.89 m/s, 128° | 0 W/m² | - |
| 1787871257 | 18.33° C | 58% | 1016.1 hPa | 0 mm | 0.45 m/s, 14° | 0 W/m² | - |
| 1787871197 | 18.33° C | 59% | 1016.1 hPa | 0 mm | 0.89 m/s, 67° | 0 W/m² | - |
| 1787871137 | 18.33° C | 58% | 1016 hPa | 0 mm | 0.89 m/s, 34° | 0 W/m² | - |
| 1787871077 | 18.33° C | 58% | 1016 hPa | 0 mm | 0.89 m/s, 94° | 0 W/m² | - |
| 1787871017 | 18.33° C | 58% | 1016 hPa | 0 mm | 0.45 m/s, 61° | 0 W/m² | - |
| 1787870957 | 18.33° C | 58% | 1016.1 hPa | 0 mm | 1.34 m/s, 5° | 0 W/m² | - |
| 1787870897 | 18.33° C | 58% | 1016 hPa | 0 mm | 0.45 m/s, 118° | 0 W/m² | - |
| 1787870837 | 18.33° C | 58% | 1015.9 hPa | 0 mm | 0.89 m/s, 124° | 0 W/m² | - |
| 1787870777 | 18.33° C | 58% | 1015.8 hPa | 0 mm | 0 m/s | 0 W/m² | - |
| 1787870717 | 18.33° C | 58% | 1016 hPa | 0 mm | 0.45 m/s, 78° | 0 W/m² | - |
| 1787870657 | 18.33° C | 58% | 1015.9 hPa | 0 mm | 0.45 m/s, 127° | 0 W/m² | - |
| 1787870597 | 18.33° C | 58% | 1016.2 hPa | 0 mm | 0.45 m/s, 157° | 0 W/m² | - |
| 1787870537 | 18.33° C | 58% | 1016 hPa | 0 mm | 0.45 m/s, 97° | 0 W/m² | - |
| 1787870477 | 18.33° C | 58% | 1016 hPa | 0 mm | 0 m/s | 0 W/m² | - |
| 1787870417 | 18.33° C | 58% | 1016.2 hPa | 0 mm | 0.45 m/s, 96° | 0 W/m² | - |
| 1787870357 | 18.33° C | 58% | 1016.2 hPa | 0 mm | 0.45 m/s, 66° | 0 W/m² | - |
| 1787870297 | 18.33° C | 58% | 1016 hPa | 0 mm | 0.89 m/s, 119° | 0 W/m² | - |
| 1787870237 | 18.33° C | 58% | 1016.2 hPa | 0 mm | 1.79 m/s, 11° | 0 W/m² | - |
| 1787870177 | 18.33° C | 58% | 1016.2 hPa | 0 mm | 1.34 m/s, 47° | 0 W/m² | - |
* Rain latest hour (hover to see other rain measurements)
** Current wind speed in m/s (hover to see current wind gust speed)